Havre-Saint-Pierre, Quebec

12:16 AM EDT on May 26, 2017 (GMT -0400)
Havre-Saint-Pierre

Weather History for CYGV - September, 2013

Change the Weather History Date:

Monday, September 2, 2013

  Actual Average Record
Temperature  
Mean Temperature 52 °F -  
Max Temperature 60 °F 56 °F 80 °F (2010)
Min Temperature 44 °F 40 °F 37 °F (2012)
Degree Days  
Heating Degree Days 13    
Growing Degree Days 2 (Base 50)    
Moisture  
Dew Point 42 °F    
Average Humidity 67    
Maximum Humidity 93    
Minimum Humidity 42    
Precipitation  
Precipitation 0.00 in - - ()
Sea Level Pressure  
Sea Level Pressure 30.24 in    
Wind  
Wind Speed 8 mph ()    
Max Wind Speed 15 mph    
Max Gust Speed 22 mph    
Visibility 9.0 miles    
Events      
Averages and records for this station are not official NWS values.
T = Trace of Precipitation, MM = Missing Value Source: Averaged Metar Reports

Daily Weather History Graph

Daily Weather History Graph

Search for Another Location

Airport or City:

Trip Planner

Search our weather history database for the weather conditions in past years. The results will help you decide how hot, cold, wet, or windy it might be!

Date:

Astronomy

Sep. 02, 2013 Rise Set
Actual Time 5:30 AM EDT 6:56 PM EDT
Civil Twilight 4:57 AM EDT 7:29 PM EDT
Nautical Twilight 4:15 AM EDT 8:10 PM EDT
Astronomical Twilight 3:30 AM EDT 8:55 PM EDT
Moon 2:33 AM EDT (9/2) 5:14 PM EDT (9/2)
Length of Visible Light 14h 32m
Length of Day
13h 25m
Waning Crescent, 8% of the Moon is Illuminated
Sep 2
Waning Crescent
Sep 5
New
Sep 12
First Quarter
Sep 19
Full
Sep 26
Last Quarter

Hourly Weather History & Observations

Time (EDT) Temp. Windchill Dew Point Humidity Pressure Visibility Wind Dir Wind Speed Gust Speed Precip Events Conditions
12:00 AM 46.4 °F 45.2 °F 44.6 °F 93% 30.16 in 9.0 mi NNE 3.5 mph - N/A   Clear
1:00 AM 46.4 °F 41.9 °F 42.8 °F 87% 30.17 in 9.0 mi NE 9.2 mph - N/A   Clear
2:00 AM 46.4 °F 42.9 °F 39.2 °F 76% 30.19 in 9.0 mi NE 6.9 mph - N/A   Clear
3:00 AM 46.4 °F 42.4 °F 41.0 °F 81% 30.20 in 9.0 mi NNE 8.1 mph - N/A   Clear
4:00 AM 46.4 °F 42.4 °F 39.2 °F 76% 30.22 in 9.0 mi NE 8.1 mph - N/A   Clear
5:00 AM 44.6 °F 40.7 °F 39.2 °F 81% 30.24 in 9.0 mi NE 6.9 mph - N/A   Clear
6:00 AM 44.6 °F 40.7 °F 39.2 °F 81% 30.26 in 9.0 mi NE 6.9 mph - N/A   Clear
7:00 AM 48.2 °F - 39.2 °F 71% 30.27 in 9.0 mi NE 10.4 mph - N/A   Clear
8:00 AM 51.8 °F - 39.2 °F 62% 30.28 in 9.0 mi NE 15.0 mph - N/A   Clear
9:00 AM 55.4 °F - 41.0 °F 58% 30.28 in 9.0 mi ENE 12.7 mph 18.4 mph N/A   Clear
10:00 AM 59.0 °F - 39.2 °F 48% 30.29 in 9.0 mi East 10.4 mph 17.3 mph N/A   Clear
11:00 AM 60.8 °F - 37.4 °F 42% 30.28 in 9.0 mi ESE 10.4 mph 18.4 mph N/A   Clear
12:00 PM 59.0 °F - 39.2 °F 48% 30.27 in 9.0 mi SE 12.7 mph 20.7 mph N/A   Clear
1:00 PM 59.0 °F - 42.8 °F 55% 30.26 in 9.0 mi SE 10.4 mph 18.4 mph N/A   Clear
2:00 PM 59.0 °F - 42.8 °F 55% 30.25 in 9.0 mi SSE 13.8 mph 21.9 mph N/A   Clear
3:00 PM 59.0 °F - 44.6 °F 59% 30.25 in 9.0 mi SE 13.8 mph 20.7 mph N/A   Clear
4:00 PM 57.2 °F - 44.6 °F 63% 30.24 in 9.0 mi SE 10.4 mph 18.4 mph N/A   Clear
5:00 PM 55.4 °F - 44.6 °F 67% 30.24 in 9.0 mi SE 8.1 mph - N/A   Clear
6:00 PM 55.4 °F - 44.6 °F 67% 30.23 in 9.0 mi ESE 6.9 mph - N/A   Clear
7:00 PM 53.6 °F - 46.4 °F 77% 30.23 in 9.0 mi East 6.9 mph - N/A   Clear
8:00 PM 53.6 °F - 46.4 °F 77% 30.23 in 9.0 mi East 8.1 mph - N/A   Overcast
9:00 PM 53.6 °F - 42.8 °F 67% 30.22 in 9.0 mi East 10.4 mph - N/A   Overcast
10:00 PM 53.6 °F - 41.0 °F 62% 30.21 in 9.0 mi East 9.2 mph - N/A   Overcast
11:00 PM 51.8 °F - 39.2 °F 62% 30.20 in 9.0 mi East 15.0 mph 21.9 mph N/A   Mostly Cloudy